Weather in Meerut

India     28°59′49″N   77°41′56″E
temp.,
°C
wind,
m/s
gust,
m/s
humid.,
%
clouds,
%
prec.,
mm/h
press.,
hPa
HPBL,
m
24 january, sun
sun2423:30+16se374723 0.0 1014186
02:30+13ese115322 0.0 101444
05:30+12ene115725 0.0 101434
08:30+13s00540 0.0 101673
11:30+20wnw11390 0.0 1017560
14:30+22w22350 0.0 10151064
17:30+19w24440 0.0 1014261
20:30+15nw36570 0.0 1016158
25 january, mon
mon2523:30+13nw34510 0.0 1017107
02:30+12nw23520 0.0 101676
05:30+11nw23540 0.0 101579
08:30+12wnw23560 0.0 1018124
11:30+18nw23410 0.0 1018564
14:30+22wsw21270 0.0 10161337
17:30+18wsw24330 0.0 1015163
20:30+14wnw34390 0.0 101794
26 january, tue
tue2623:30+13wnw23390 0.0 101773
02:30+11nw23450 0.0 101671
05:30+10nw23540 0.0 101573
08:30+12nw34610 0.0 1017146
11:30+20nw33380 0.0 1017607
14:30+22wnw33250 0.0 10141321
17:30+19w36340 0.0 1014286
20:30+15nw35440 0.0 1016121
27 january, wed
wed2723:30+13nw23450 0.0 101674
02:30+12nw23430 0.0 101569
05:30+10nw34470 0.0 101582
08:30+11nw24440 0.0 1016148
11:30+19wnw34330 0.0 1016573
14:30+22wnw33220 0.0 10141125
17:30+19wnw35310 0.0 1013208
20:30+15wnw34400 0.0 101593
28 january, thu
thu2823:30+13nw23430 0.0 101668
02:30+11nnw22480 0.0 101553
05:30+10nw23520 0.0 101562
08:30+12nw23460 0.0 1017103
11:30+20nw11280 0.0 1018521
14:30+22w22190 0.0 10151265
17:30+19wnw36250 0.0 1014287
20:30+15wnw34310 0.0 1017111